| time (UTC) | temp C | wind direction | speed KPH | gust KPH | rain 1hr cm | rain 24hr cm | rain mn cm | humidity % | barometer mb |
| 20260505093017 | 5 | 104 | 12.9 | 25.7 | 0.10 | 0.15 | 0.10 | 97 | 874.3 |
| 20260505091516 | 4 | 96 | 6.4 | 22.5 | 0.05 | 0.10 | 0.05 | 97 | 874.6 |
| 20260505090017 | 3 | 130 | 9.7 | 20.9 | 0.03 | 0.08 | 0.03 | 97 | 874.7 |
| 20260505084525 | 3 | 136 | 12.9 | 25.7 | 0.00 | 0.05 | 0.00 | 97 | 874.7 |
| 20260505083011 | 4 | 100 | 12.9 | 25.7 | 0.00 | 0.05 | 0.00 | 97 | 874.8 |
| 20260505081510 | 4 | 144 | 11.3 | 29.0 | 0.00 | 0.05 | 0.00 | 97 | 875.0 |
| 20260505080021 | 4 | 68 | 8.0 | 24.1 | 0.00 | 0.05 | 0.00 | 97 | 875.3 |
| 20260505074507 | 4 | 88 | 12.9 | 33.8 | 0.00 | 0.05 | 0.00 | 97 | 875.2 |
| 20260505073005 | 5 | 136 | 14.5 | 27.4 | 0.00 | 0.05 | 0.00 | 97 | 875.3 |
| 20260505071502 | 5 | 188 | 19.3 | 33.8 | 0.00 | 0.05 | 0.00 | 97 | 875.1 |
| 20260505070107 | 5 | 129 | 17.7 | 38.6 | 0.00 | 0.05 | 0.05 | 97 | 875.3 |
| 20260505064559 | 5 | 143 | 20.9 | 35.4 | 0.00 | 0.05 | 0.05 | 97 | 875.2 |
| 20260505063058 | 5 | 156 | 22.5 | 40.2 | 0.00 | 0.05 | 0.05 | 97 | 875.4 |
| 20260505061618 | 5 | 152 | 20.9 | 45.1 | 0.00 | 0.05 | 0.05 | 97 | 875.4 |
| 20260505060100 | 5 | 135 | 22.5 | 33.8 | 0.00 | 0.05 | 0.05 | 97 | 875.6 |
| 20260505054557 | 5 | 131 | 19.3 | 40.2 | 0.00 | 0.05 | 0.05 | 96 | 875.6 |
| 20260505053057 | 4 | 128 | 17.7 | 38.6 | 0.00 | 0.05 | 0.05 | 96 | 875.7 |
| 20260505051555 | 4 | 125 | 17.7 | 40.2 | 0.00 | 0.05 | 0.05 | 96 | 875.7 |
| 20260505041557 | 5 | 111 | 19.3 | 45.1 | 0.03 | 0.05 | 0.05 | 95 | 875.8 |
| 20260505040101 | 5 | 134 | 19.3 | 38.6 | 0.00 | 0.03 | 0.03 | 95 | 875.7 |
| 20260505034554 | 5 | 127 | 22.5 | 45.1 | 0.00 | 0.03 | 0.03 | 95 | 875.6 |
| 20260505033100 | 5 | 115 | 22.5 | 43.5 | 0.00 | 0.03 | 0.03 | 95 | 875.5 |
| 20260505031555 | 5 | 116 | 20.9 | 41.8 | 0.00 | 0.03 | 0.03 | 95 | 875.3 |
| 20260505030051 | 5 | 143 | 19.3 | 45.1 | 0.00 | 0.03 | 0.03 | 94 | 875.4 |
| 20260505024550 | 5 | 121 | 17.7 | 38.6 | 0.00 | 0.03 | 0.03 | 94 | 875.1 |
| 20260505023047 | 6 | 128 | 22.5 | 37.0 | 0.00 | 0.03 | 0.03 | 93 | 875.1 |
| 20260505021545 | 6 | 125 | 25.7 | 38.6 | 0.00 | 0.03 | 0.03 | 91 | 875.2 |
| 20260505020044 | 6 | 96 | 25.7 | 46.7 | 0.00 | 0.03 | 0.03 | 90 | 875.0 |
| 20260505014545 | 6 | 94 | 27.4 | 38.6 | 0.00 | 0.03 | 0.03 | 90 | 875.1 |
| 20260505013043 | 6 | 125 | 19.3 | 45.1 | 0.00 | 0.03 | 0.03 | 88 | 875.6 |
| 20260505011545 | 7 | 121 | 19.3 | 48.3 | 0.00 | 0.03 | 0.03 | 85 | 875.6 |
| 20260505010056 | 7 | 129 | 24.1 | 40.2 | 0.00 | 0.03 | 0.03 | 84 | 875.7 |
| 20260505004543 | 7 | 142 | 22.5 | 49.9 | 0.00 | 0.03 | 0.03 | 83 | 875.8 |
| 20260505003042 | 7 | 122 | 22.5 | 48.3 | 0.00 | 0.03 | 0.03 | 81 | 875.9 |
| 20260505001541 | 8 | 116 | 20.9 | 35.4 | 0.00 | 0.03 | 0.03 | 81 | 875.8 |
| 20260505000049 | 8 | 63 | 20.9 | 43.5 | 0.00 | 0.03 | 0.03 | 79 | 875.9 |
| 20260504234540 | 8 | 63 | 22.5 | 45.1 | 0.00 | 0.03 | 0.03 | 77 | 875.9 |
| 20260504233040 | 8 | 146 | 27.4 | 41.8 | 0.00 | 0.03 | 0.03 | 75 | 876.0 |
| 20260504231539 | 8 | 112 | 25.7 | 41.8 | 0.00 | 0.03 | 0.03 | 74 | 876.0 |
| 20260504230040 | 8 | 157 | 22.5 | 43.5 | 0.00 | 0.03 | 0.03 | 78 | 876.1 |
| 20260504224539 | 8 | 133 | 20.9 | 38.6 | 0.00 | 0.03 | 0.03 | 77 | 876.1 |
| 20260504223038 | 8 | 140 | 25.7 | 43.5 | 0.00 | 0.03 | 0.03 | 76 | 876.1 |
| 20260504221541 | 8 | 104 | 22.5 | 45.1 | 0.00 | 0.03 | 0.03 | 75 | 876.3 |
| 20260504220046 | 8 | 103 | 25.7 | 46.7 | 0.00 | 0.03 | 0.03 | 76 | 876.3 |
| 20260504214538 | 8 | 144 | 22.5 | 40.2 | 0.00 | 0.03 | 0.03 | 79 | 876.5 |
| 20260504213051 | 8 | 83 | 22.5 | 40.2 | 0.00 | 0.03 | 0.03 | 79 | 876.7 |
| 20260504211540 | 9 | 107 | 24.1 | 43.5 | 0.00 | 0.03 | 0.03 | 77 | 876.6 |
| 20260504210034 | 8 | 145 | 24.1 | 38.6 | 0.00 | 0.03 | 0.03 | 79 | 876.8 |
| 20260504204541 | 9 | 115 | 24.1 | 38.6 | 0.00 | 0.03 | 0.03 | 77 | 876.7 |
| 20260504203033 | 8 | 126 | 19.3 | 33.8 | 0.00 | 0.03 | 0.03 | 80 | 876.9 |
| 20260504201531 | 9 | 121 | 20.9 | 37.0 | 0.00 | 0.03 | 0.03 | 81 | 877.0 |
| 20260504200029 | 8 | 162 | 20.9 | 32.2 | 0.00 | 0.03 | 0.03 | 79 | 876.9 |
| 20260504194528 | 8 | 149 | 20.9 | 37.0 | 0.00 | 0.03 | 0.03 | 82 | 877.0 |
| 20260504193025 | 8 | 142 | 24.1 | 45.1 | 0.00 | 0.03 | 0.03 | 82 | 877.1 |
| 20260504191526 | 7 | 111 | 19.3 | 32.2 | 0.00 | 0.03 | 0.03 | 90 | 877.1 |
| 20260504190027 | 7 | 118 | 17.7 | 29.0 | 0.00 | 0.03 | 0.03 | 89 | 877.3 |
| 20260504184522 | 7 | 89 | 16.1 | 38.6 | 0.00 | 0.03 | 0.03 | 87 | 877.5 |
| 20260504183019 | 7 | 139 | 24.1 | 33.8 | 0.00 | 0.03 | 0.03 | 85 | 877.2 |
| 20260504181518 | 6 | 162 | 19.3 | 40.2 | 0.00 | 0.03 | 0.03 | 92 | 877.0 |
| 20260504180013 | 6 | 115 | 14.5 | 27.4 | 0.00 | 0.03 | 0.03 | 93 | 877.2 |
| 20260504174516 | 6 | 105 | 17.7 | 33.8 | 0.00 | 0.03 | 0.03 | 94 | 877.2 |
| 20260504173009 | 5 | 142 | 16.1 | 43.5 | 0.00 | 0.03 | 0.03 | 95 | 876.9 |
| 20260504171508 | 6 | 160 | 16.1 | 30.6 | 0.03 | 0.03 | 0.03 | 96 | 876.7 |